Location: Casteau
(50.5142°N, 4.0161°E)
Time: 07:20:28
(UTC+00:00)

Cosmos 2098 Rocket - Pass Details

Date: 18 September 2020
Orbit: 366 x 1185 km, 82.9° (Epoch: 24 October)

Event Time Altitude Azimuth Distance (km) Brightness Sun altitude
Rises 20:50:34 0° 350° (N) 4,081 8.0 -27.0°
Reaches altitude 10° 20:53:24 10° 352° (N) 3,080 7.2 -27.4°
Maximum altitude 21:00:43 75° 78° (ENE) 1,103 4.0 -28.2°
Enters shadow 21:01:10 72° 112° (ESE) 1,108 4.0 -28.3°
